GW0795 Weather Reports


Display with metric or nautical units.
time (UTC)temp
F
wind
direction
speed
MPH
gust
MPH
rain 1hr
in
rain 24hr
in
rain mn
in
humidity
%
barometer
mb
20260508081006 49 296 0.0 0.0 0.00 0.00 0.00 85 1016.6
20260508080504 50 296 0.0 0.0 0.00 0.00 0.00 85 1016.6
20260508080028 50 296 0.0 0.0 0.00 0.00 0.00 84 1016.6
20260508075503 50 296 0.0 0.0 0.00 0.00 0.00 84 1016.6
20260508075000 50 296 0.0 0.0 0.00 0.00 0.00 84 1016.6
20260508074501 50 296 0.0 0.0 0.00 0.00 0.00 84 1016.6
20260508074001 50 296 0.0 0.0 0.00 0.00 0.00 84 1016.6
20260508073500 50 296 0.0 0.0 0.00 0.00 0.00 84 1016.7
20260508073003 50 296 0.0 0.0 0.00 0.00 0.00 83 1016.7
20260508072501 50 296 0.0 0.0 0.00 0.00 0.00 83 1016.7
20260508072002 50 296 0.0 0.0 0.00 0.00 0.00 83 1016.8
20260508071508 50 296 0.0 0.0 0.00 0.00 0.00 83 1016.8
20260508071005 51 296 0.0 0.0 0.00 0.00 0.00 83 1016.8
20260508070508 51 296 0.0 0.0 0.00 0.00 0.00 82 1016.8
20260508070019 51 296 0.0 0.0 0.00 0.00 0.00 82 1016.8
20260508065503 51 296 0.0 0.0 0.00 0.00 0.00 83 1016.8
20260508065004 50 296 0.0 0.0 0.00 0.00 0.00 82 1016.8
20260508064534 51 296 0.0 0.0 0.00 0.00 0.00 81 1016.8
20260508064005 51 296 0.0 0.0 0.00 0.00 0.00 81 1016.8
20260508063501 51 296 0.0 0.0 0.00 0.00 0.00 81 1016.7
20260508063004 51 296 0.0 0.0 0.00 0.00 0.00 80 1016.7
20260508062502 51 296 0.0 0.0 0.00 0.00 0.00 80 1016.7
20260508062001 51 296 0.0 0.0 0.00 0.00 0.00 80 1016.7
20260508061505 51 296 0.0 0.0 0.00 0.00 0.00 80 1016.7
20260508061001 51 296 0.0 0.0 0.00 0.00 0.00 80 1016.7
20260508060500 51 296 0.0 0.0 0.00 0.00 0.00 79 1016.7
20260508060007 52 296 0.0 0.0 0.00 0.00 0.00 79 1016.8
20260508055504 52 296 0.0 0.0 0.00 0.00 0.00 79 1016.8
20260508055004 52 296 0.0 0.0 0.00 0.00 0.00 79 1016.8
20260508054516 52 296 0.0 0.0 0.00 0.00 0.00 78 1016.9
20260508054005 53 296 0.0 2.0 0.00 0.00 0.00 77 1016.8
20260508053504 53 296 0.0 2.0 0.00 0.00 0.00 77 1016.8
20260508053016 53 296 0.0 2.0 0.00 0.00 0.00 77 1016.8
20260508052510 53 296 0.0 0.0 0.00 0.00 0.00 76 1016.8
20260508052008 53 296 0.0 0.0 0.00 0.00 0.00 76 1016.8
20260508051504 53 296 0.0 0.0 0.00 0.00 0.00 76 1016.8
20260508051006 53 296 0.0 0.0 0.00 0.00 0.00 76 1016.9
20260508050500 53 296 0.0 0.0 0.00 0.00 0.00 76 1016.8
20260508050009 54 296 0.0 0.0 0.00 0.00 0.00 76 1016.7
20260508045504 54 296 0.0 0.0 0.00 0.00 0.00 76 1016.8
20260508045005 54 296 0.0 0.0 0.00 0.00 0.00 75 1016.8
20260508044509 54 296 0.0 0.0 0.00 0.00 0.00 75 1016.9
20260508044004 54 296 0.0 0.0 0.00 0.00 0.00 75 1016.9
20260508043504 55 296 0.0 0.0 0.00 0.00 0.00 74 1016.9
20260508043016 55 296 0.0 0.0 0.00 0.00 0.00 74 1016.9
20260508042506 55 296 0.0 0.0 0.00 0.00 0.00 74 1017.0
20260508042004 55 296 0.0 0.0 0.00 0.00 0.00 73 1017.0
20260508041519 55 296 0.0 0.0 0.00 0.00 0.00 73 1016.9
20260508041006 55 296 0.0 0.0 0.00 0.00 0.00 73 1017.0
20260508040509 56 296 0.0 0.0 0.00 0.00 0.00 73 1017.1
20260508040014 56 296 0.0 0.0 0.00 0.00 0.00 72 1017.0
20260508035501 56 296 0.0 0.0 0.00 0.00 0.00 72 1017.0
20260508035006 56 296 0.0 0.0 0.00 0.00 0.00 71 1016.8
20260508034510 57 296 0.0 0.0 0.00 0.00 0.00 71 1016.8
20260508034005 57 296 0.0 0.0 0.00 0.00 0.00 69 1016.8
20260508033504 57 296 0.0 0.0 0.00 0.00 0.00 69 1016.7
20260508033014 58 296 0.0 0.0 0.00 0.00 0.00 69 1016.8
20260508032504 58 296 0.0 0.0 0.00 0.00 0.00 67 1016.8
20260508032007 58 296 0.0 0.0 0.00 0.00 0.00 67 1016.8
20260508031520 59 296 0.0 0.0 0.00 0.00 0.00 66 1016.8
20260508031012 58 296 0.0 0.0 0.00 0.00 0.00 67 1016.8
20260508030507 59 296 0.0 0.0 0.00 0.00 0.00 66 1016.9
20260508030018 59 296 0.0 2.0 0.00 0.00 0.00 65 1016.9
20260508025509 60 300 0.0 2.0 0.00 0.00 0.00 62 1016.8
20260508025011 60 294 0.0 2.0 0.00 0.00 0.00 62 1016.8
20260508024518 60 291 0.0 2.0 0.00 0.00 0.00 62 1017.0
20260508024005 60 275 0.0 2.0 0.00 0.00 0.00 62 1017.0
20260508023505 60 275 0.0 2.0 0.00 0.00 0.00 62 1017.1
20260508023011 61 275 0.0 2.0 0.00 0.00 0.00 61 1017.1
20260508022506 61 275 0.0 2.0 0.00 0.00 0.00 60 1017.0
20260508022007 61 266 0.0 2.0 0.00 0.00 0.00 60 1017.0
20260508021513 62 309 0.0 2.0 0.00 0.00 0.00 59 1017.1
20260508021007 62 309 0.0 2.0 0.00 0.00 0.00 58 1017.1
20260508020507 62 11 1.0 3.0 0.00 0.00 0.00 56 1017.1
20260508020016 62 5 1.0 3.0 0.00 0.00 0.00 56 1017.1
20260508015507 62 318 0.0 2.0 0.00 0.00 0.00 57 1017.2
20260508015006 62 339 1.0 2.0 0.00 0.00 0.00 56 1017.3
20260508014524 62 290 0.0 2.0 0.00 0.00 0.00 57 1017.2
20260508014007 62 307 1.0 2.0 0.00 0.00 0.00 57 1017.3
20260508013508 62 292 0.0 3.0 0.00 0.00 0.00 57 1017.3
20260508013006 62 5 1.0 2.0 0.00 0.00 0.00 56 1017.3
20260508012506 62 5 0.0 4.0 0.00 0.00 0.00 57 1017.3
20260508012004 62 25 2.0 4.0 0.00 0.00 0.00 58 1017.5
20260508011509 62 322 3.0 4.0 0.00 0.00 0.00 56 1017.5
20260508011008 63 10 1.0 3.0 0.00 0.00 0.00 58 1017.5
20260508010504 62 16 0.0 3.0 0.00 0.00 0.00 55 1017.5
20260508010028 62 12 0.0 3.0 0.00 0.00 0.00 55 1017.6
20260508005507 62 344 1.0 3.0 0.00 0.00 0.00 55 1017.7
20260508005009 63 273 1.0 3.0 0.00 0.00 0.00 54 1017.7
20260508004521 63 184 1.0 3.0 0.00 0.00 0.00 54 1017.7
20260508004013 62 155 1.0 3.0 0.00 0.00 0.00 56 1017.7
20260508003511 62 76 1.0 4.0 0.00 0.00 0.00 54 1017.7
20260508003024 62 17 0.0 4.0 0.00 0.00 0.00 56 1017.8
20260508002507 63 289 2.0 4.0 0.00 0.00 0.00 54 1017.8
20260508002013 63 284 1.0 3.0 0.00 0.00 0.00 56 1017.9
20260508001514 62 289 0.0 3.0 0.00 0.00 0.00 56 1017.9
20260508001005 63 260 1.0 6.0 0.00 0.00 0.00 57 1018.0
20260508000507 62 157 1.0 6.0 0.00 0.00 0.00 57 1018.0
20260508000013 62 335 3.0 6.0 0.00 0.00 0.00 56 1018.0
20260507235507 63 32 1.0 6.0 0.00 0.00 0.00 55 1017.9
20260507235008 63 219 0.0 6.0 0.00 0.00 0.00 55 1017.9
20260507234528 62 155 3.0 6.0 0.00 0.00 0.00 54 1018.0
20260507234008 62 9 1.0 6.0 0.00 0.00 0.00 55 1017.9
20260507233508 62 300 2.0 6.0 0.00 0.00 0.00 55 1018.0
20260507233027 62 300 3.0 6.0 0.00 0.00 0.00 54 1018.0
20260507232508 62 180 2.0 6.0 0.00 0.00 0.00 55 1018.1
20260507232008 62 352 3.0 6.0 0.00 0.00 0.00 55 1018.1
20260507231526 62 313 0.0 5.0 0.00 0.00 0.00 58 1018.1
20260507231009 61 309 3.0 8.0 0.00 0.00 0.00 57 1018.3
20260507230508 61 261 2.0 8.0 0.00 0.00 0.00 56 1018.4
20260507230016 62 294 3.0 4.0 0.00 0.00 0.00 57 1018.4
20260507225507 62 146 2.0 6.0 0.00 0.00 0.00 57 1018.4
20260507225005 61 246 3.0 7.0 0.00 0.00 0.00 55 1018.6
20260507224501 62 306 2.0 7.0 0.00 0.00 0.00 56 1018.6
20260507224001 62 267 2.0 4.0 0.00 0.00 0.00 54 1018.6
20260507223502 63 13 1.0 6.0 0.00 0.00 0.00 56 1018.8
20260507223008 62 273 3.0 7.0 0.00 0.00 0.00 56 1018.8
20260507222503 62 131 2.0 7.0 0.00 0.00 0.00 56 1018.9
20260507222004 63 275 2.0 6.0 0.00 0.00 0.00 56 1018.9
20260507221506 63 155 1.0 9.0 0.00 0.00 0.00 56 1018.9
20260507221006 62 281 3.0 9.0 0.00 0.00 0.00 57 1019.0
20260507220504 61 252 2.0 7.0 0.00 0.00 0.00 57 1019.0
20260507220010 62 271 4.0 8.0 0.00 0.00 0.00 55 1019.0
20260507215504 61 296 4.0 8.0 0.00 0.00 0.00 57 1019.1
20260507215008 62 284 3.0 8.0 0.00 0.00 0.00 54 1019.1
20260507214515 63 306 3.0 7.0 0.00 0.00 0.00 55 1019.1
20260507214007 63 292 3.0 6.0 0.00 0.00 0.00 53 1019.2
20260507213510 63 224 2.0 6.0 0.00 0.00 0.00 57 1019.2
20260507213001 62 149 2.0 8.0 0.00 0.00 0.00 55 1019.2
20260507212501 63 119 1.0 8.0 0.00 0.00 0.00 56 1019.3
20260507212002 63 153 1.0 7.0 0.00 0.00 0.00 56 1019.4
20260507211504 62 96 3.0 7.0 0.00 0.00 0.00 53 1019.4
20260507211004 65 272 3.0 7.0 0.00 0.00 0.00 52 1019.6
20260507210504 64 336 1.0 6.0 0.00 0.00 0.00 56 1019.5
20260507210008 62 200 2.0 6.0 0.00 0.00 0.00 57 1019.5
20260507205505 62 167 2.0 6.0 0.00 0.00 0.00 61 1019.6
20260507205005 62 282 3.0 6.0 0.00 0.00 0.00 54 1019.7
20260507204511 63 218 1.0 6.0 0.00 0.00 0.00 58 1019.7
20260507204007 63 166 2.0 6.0 0.00 0.00 0.00 58 1019.8
20260507203509 62 205 3.0 7.0 0.00 0.00 0.00 56 1019.8
20260507203016 61 5 2.0 7.0 0.00 0.00 0.00 57 1019.9
20260507202506 60 330 2.0 7.0 0.00 0.00 0.00 59 1020.0
20260507202010 60 321 3.0 7.0 0.00 0.00 0.00 58 1020.1
20260507201505 61 308 3.0 7.0 0.00 0.00 0.00 57 1020.1
20260507201003 61 310 2.0 4.0 0.00 0.00 0.00 58 1020.1
20260507200503 61 215 1.0 3.0 0.00 0.00 0.00 61 1020.1
20260507200004 59 224 1.0 4.0 0.00 0.00 0.00 63 1020.2
20260507195504 58 301 1.0 4.0 0.00 0.00 0.00 61 1020.2
20260507195006 59 219 1.0 5.0 0.00 0.00 0.00 62 1020.3
20260507194527 58 220 1.0 5.0 0.00 0.00 0.00 62 1020.2
20260507194004 58 179 2.0 4.0 0.00 0.00 0.00 63 1020.2
20260507193508 59 202 1.0 5.0 0.00 0.00 0.00 61 1020.3
20260507193015 58 178 1.0 5.0 0.00 0.00 0.00 65 1020.2
20260507192507 58 143 1.0 5.0 0.00 0.00 0.00 63 1020.3
20260507192006 58 205 3.0 5.0 0.00 0.00 0.00 61 1020.4
20260507191519 58 190 1.0 4.0 0.00 0.00 0.00 65 1020.4
20260507191007 58 202 2.0 4.0 0.00 0.00 0.00 62 1020.4
20260507190511 59 235 1.0 4.0 0.00 0.00 0.00 63 1020.5
20260507190010 58 256 1.0 4.0 0.00 0.00 0.00 62 1020.5
20260507185503 58 219 2.0 4.0 0.00 0.00 0.00 62 1020.4
20260507185003 57 134 1.0 4.0 0.00 0.00 0.00 63 1020.4
20260507184508 58 219 2.0 4.0 0.00 0.00 0.00 63 1020.5
20260507184004 58 234 1.0 4.0 0.00 0.00 0.00 65 1020.5
20260507183504 58 316 1.0 5.0 0.00 0.00 0.00 63 1020.5
20260507183015 57 132 3.0 6.0 0.00 0.00 0.00 64 1020.5
20260507182504 58 242 1.0 7.0 0.00 0.00 0.00 64 1020.5
20260507182009 58 169 2.0 7.0 0.00 0.00 0.00 62 1020.6
20260507181520 59 184 2.0 7.0 0.00 0.00 0.00 64 1020.6
20260507181010 57 179 1.0 6.0 0.00 0.00 0.00 63 1020.6
20260507180507 59 44 0.0 5.0 0.00 0.00 0.00 64 1020.6
20260507180022 57 298 1.0 5.0 0.00 0.00 0.00 67 1020.7
20260507175507 58 306 2.0 5.0 0.00 0.00 0.00 67 1020.7
20260507175010 56 178 3.0 7.0 0.00 0.00 0.00 69 1020.7
20260507174511 55 294 2.0 7.0 0.00 0.00 0.00 71 1020.7
20260507174004 55 162 3.0 7.0 0.00 0.00 0.00 70 1020.8
20260507173510 56 155 4.0 7.0 0.00 0.00 0.00 68 1020.9
20260507173031 57 172 1.0 5.0 0.00 0.00 0.00 69 1020.9
20260507172505 56 173 2.0 5.0 0.00 0.00 0.00 69 1020.9
20260507172009 57 141 1.0 3.0 0.00 0.00 0.00 69 1020.9
20260507171516 57 173 1.0 5.0 0.00 0.00 0.00 68 1020.9
20260507171008 56 228 1.0 5.0 0.00 0.00 0.00 72 1020.9
20260507170509 56 186 1.0 5.0 0.00 0.00 0.00 70 1020.9
20260507170022 55 303 2.0 5.0 0.00 0.00 0.00 72 1020.8
20260507165506 56 171 2.0 5.0 0.00 0.00 0.00 70 1020.8
20260507165012 56 221 1.0 4.0 0.00 0.00 0.00 71 1020.8
20260507164533 56 232 0.0 6.0 0.00 0.00 0.00 70 1020.8
20260507164011 56 269 1.0 6.0 0.00 0.00 0.00 71 1020.8
20260507163507 56 205 2.0 6.0 0.00 0.00 0.00 71 1020.9
20260507163008 55 9 1.0 6.0 0.00 0.00 0.00 73 1020.9
20260507162503 54 138 2.0 6.0 0.00 0.00 0.00 72 1020.9
20260507162011 56 176 2.0 5.0 0.00 0.00 0.00 70 1021.0
20260507161512 55 169 0.0 5.0 0.00 0.00 0.00 74 1021.0
20260507161007 54 174 1.0 5.0 0.00 0.00 0.00 73 1021.0
20260507160510 54 251 1.0 3.0 0.00 0.00 0.00 76 1021.0
20260507160024 54 150 1.0 3.0 0.00 0.00 0.00 73 1021.0
20260507155507 53 207 1.0 6.0 0.00 0.00 0.00 76 1021.1
20260507155010 53 142 0.0 6.0 0.00 0.00 0.00 76 1021.1
20260507154524 53 125 2.0 5.0 0.00 0.00 0.00 75 1021.1
20260507154010 53 192 1.0 6.0 0.00 0.00 0.00 77 1021.1
20260507153510 52 169 1.0 8.0 0.00 0.00 0.00 78 1021.1
20260507153034 52 157 2.0 8.0 0.00 0.00 0.00 76 1021.1
20260507152515 53 145 1.0 7.0 0.00 0.00 0.00 77 1021.1
20260507152012 52 173 2.0 6.0 0.00 0.00 0.00 77 1021.1
20260507151513 52 182 1.0 6.0 0.00 0.00 0.00 76 1021.0
20260507151006 53 195 0.0 5.0 0.00 0.00 0.00 77 1021.0
20260507150506 52 5 0.0 5.0 0.00 0.00 0.00 78 1021.0
20260507150014 52 184 0.0 6.0 0.00 0.00 0.00 77 1021.0
20260507145507 52 215 2.0 6.0 0.00 0.00 0.00 77 1021.0
20260507145011 52 211 2.0 6.0 0.00 0.00 0.00 78 1021.0
20260507144525 52 217 2.0 5.0 0.00 0.00 0.00 78 1021.1
20260507144011 52 232 2.0 5.0 0.00 0.00 0.00 77 1021.0
20260507143507 52 180 1.0 3.0 0.00 0.00 0.00 77 1021.0
20260507143027 52 294 0.0 4.0 0.00 0.00 0.00 79 1021.0
20260507142510 51 201 1.0 4.0 0.00 0.00 0.00 80 1020.9
20260507142010 51 196 1.0 4.0 0.00 0.00 0.00 81 1020.9
20260507141526 50 197 1.0 4.0 0.00 0.00 0.00 81 1020.9
20260507141010 50 192 0.0 7.0 0.00 0.00 0.00 82 1020.9
20260507140509 50 192 2.0 7.0 0.00 0.00 0.00 82 1020.9
20260507140019 50 192 1.0 3.0 0.00 0.00 0.00 83 1020.8
20260507135506 50 186 1.0 3.0 0.00 0.00 0.00 82 1020.6
20260507135008 50 220 1.0 4.0 0.00 0.00 0.00 82 1020.7
20260507134520 50 235 1.0 4.0 0.00 0.00 0.00 82 1020.6
20260507134002 50 208 0.0 3.0 0.00 0.00 0.00 83 1020.5
20260507133503 50 194 1.0 4.0 0.00 0.00 0.00 83 1020.6
20260507133006 50 194 0.0 4.0 0.00 0.00 0.00 84 1020.5
20260507132502 50 193 1.0 4.0 0.00 0.00 0.00 83 1020.5
20260507132006 50 216 1.0 3.0 0.00 0.00 0.00 83 1020.5
20260507131516 50 196 1.0 3.0 0.00 0.00 0.00 83 1020.4
20260507131004 50 173 1.0 3.0 0.00 0.00 0.00 83 1020.5
20260507130510 50 163 0.0 3.0 0.00 0.00 0.00 83 1020.5
20260507130015 50 163 0.0 3.0 0.00 0.00 0.00 83 1020.5
20260507125507 50 146 0.0 2.0 0.00 0.00 0.00 83 1020.4
20260507125006 50 126 0.0 2.0 0.00 0.00 0.00 83 1020.4
20260507124521 50 131 0.0 2.0 0.00 0.00 0.00 83 1020.4
20260507124011 50 126 0.0 2.0 0.00 0.00 0.00 83 1020.4
20260507123508 50 126 0.0 2.0 0.00 0.00 0.00 82 1020.5
20260507123023 50 217 0.0 2.0 0.00 0.00 0.00 83 1020.6
20260507122504 50 227 0.0 2.0 0.00 0.00 0.00 83 1020.6
20260507122004 50 146 0.0 2.0 0.00 0.00 0.00 83 1020.6
20260507121512 50 178 0.0 0.0 0.00 0.00 0.00 83 1020.6
20260507121004 50 178 0.0 1.0 0.00 0.00 0.00 83 1020.6
20260507120503 50 178 0.0 1.0 0.00 0.00 0.00 83 1020.6
20260507120011 50 175 0.0 0.0 0.00 0.00 0.00 84 1020.7
20260507115507 50 179 0.0 0.0 0.00 0.00 0.00 85 1020.8
20260507115004 50 179 0.0 0.0 0.00 0.00 0.00 85 1020.7
20260507114516 50 179 0.0 0.0 0.00 0.00 0.00 84 1020.8
20260507114006 50 179 0.0 2.0 0.00 0.00 0.00 84 1020.9
20260507113509 50 179 0.0 2.0 0.00 0.00 0.00 84 1020.9
20260507113038 50 172 0.0 0.0 0.00 0.00 0.00 84 1021.0
20260507112507 50 173 0.0 0.0 0.00 0.00 0.00 85 1021.0
20260507112010 50 173 0.0 0.0 0.00 0.00 0.00 85 1021.0
20260507111535 50 173 0.0 0.0 0.00 0.00 0.00 85 1021.0
20260507111004 50 173 0.0 0.0 0.00 0.00 0.00 85 1021.0
20260507110503 51 173 0.0 0.0 0.00 0.00 0.00 85 1021.0
20260507110015 50 173 0.0 0.0 0.00 0.00 0.00 85 1021.0
20260507105504 51 173 0.0 1.0 0.00 0.00 0.00 85 1021.0
20260507105003 51 173 0.0 1.0 0.00 0.00 0.00 85 1021.0
20260507104514 50 173 0.0 0.0 0.00 0.00 0.00 86 1021.0
20260507104010 51 173 0.0 0.0 0.00 0.00 0.00 86 1020.9
20260507103506 51 173 0.0 0.0 0.00 0.00 0.00 85 1021.1
20260507103021 51 172 0.0 0.0 0.00 0.00 0.00 85 1021.1
20260507102506 51 172 0.0 0.0 0.00 0.00 0.00 86 1021.2
20260507102008 51 173 0.0 0.0 0.00 0.00 0.00 86 1021.1
20260507101525 51 172 0.0 0.0 0.00 0.00 0.00 86 1021.2
20260507101008 51 172 0.0 2.0 0.00 0.00 0.00 86 1021.2
20260507100508 50 173 0.0 2.0 0.00 0.00 0.00 87 1021.1
20260507100026 50 173 0.0 2.0 0.00 0.00 0.00 87 1021.2
20260507095503 51 172 0.0 2.0 0.00 0.00 0.00 87 1021.2
20260507095003 50 173 0.0 2.0 0.00 0.00 0.00 87 1021.1
20260507094511 50 173 0.0 0.0 0.00 0.00 0.00 87 1021.1
20260507094003 50 173 0.0 0.0 0.00 0.00 0.00 87 1021.0
20260507093508 50 173 0.0 0.0 0.00 0.00 0.00 87 1021.1
20260507093014 50 173 0.0 0.0 0.00 0.00 0.00 87 1021.1
20260507092513 50 172 0.0 0.0 0.00 0.00 0.00 87 1021.1
20260507092010 50 173 0.0 0.0 0.00 0.00 0.00 88 1021.1
20260507091519 50 173 0.0 0.0 0.00 0.00 0.00 88 1021.1
20260507091009 50 172 0.0 0.0 0.00 0.00 0.00 88 1021.1
20260507090511 49 173 0.0 2.0 0.00 0.00 0.00 88 1021.1
20260507090024 50 172 0.0 2.0 0.00 0.00 0.00 88 1021.1
20260507085508 49 173 0.0 2.0 0.00 0.00 0.00 88 1021.2
20260507085007 50 172 0.0 2.0 0.00 0.00 0.00 88 1021.1
20260507084539 50 173 0.0 2.0 0.00 0.00 0.00 87 1021.1
20260507084011 50 173 0.0 2.0 0.00 0.00 0.00 87 1021.1
20260507083507 50 173 0.0 2.0 0.00 0.00 0.00 87 1021.1
20260507083012 50 173 0.0 2.0 0.00 0.00 0.00 87 1021.1
20260507082507 50 173 0.0 2.0 0.00 0.00 0.00 87 1021.2
20260507082008 50 193 0.0 1.0 0.00 0.00 0.00 87 1021.2
20260507081532 50 193 0.0 2.0 0.00 0.00 0.00 87 1021.2